Home   Weather   Wardha   Past weeks

Flag for India Past Weather in Wardha, Maharashtra, India — Yesterday and Last 2 Weeks

75 °F


Feels Like: 77 °F
Forecast: 71 / 89 °F
Wind: No wind

Location: Nagpur Sonegaon

Current Time: Oct 22, 2016 at 11:22:20 PM

Latest Report: Oct 22, 2016 at 10:30 PM

Visibility: 2 mi

Pressure: 29.92 "Hg

Humidity: 61%

Dew Point: 61 °F

Location of WardhaLocation

Past Weather in Wardha — Graph


Wardha Temperature Yesterday

Maximum temperature yesterday: 91 °F (at 3:00 PM)
Minimum temperature yesterday: 61 °F (at 5:30 AM)
Average temperature yesterday: 75 °F

High & Low Weather Summary for the Past Weeks

High95 °F (Oct 10, 1:30 PM)100% (Oct 8, 8:00 PM)29.98 "Hg (Oct 8, 8:00 PM)
Low61 °F (Oct 13, 4:30 AM)24% (Oct 22, 2:30 PM)29.68 "Hg (Oct 8, 3:30 PM)
Average78 °F72%29.84 "Hg
* Reported Oct 7 9:30 PM — Oct 22 10:00 PM, Wardha, Weather by CustomWeather, © 2016

Note: Actual official high and low records may vary slightly from our data, if they occured in-between our weather recording intervals... More about our weather records


Wardha Weather History for the Previous 24 Hours

Scroll right to see more
Time TempWeatherWind HumidityBarometerVisibility
10:00 PM
Sat, Oct 22
75 °FHaze.No wind61%29.92 "Hg2 mi
9:30 PM75 °FHaze.No wind61%29.92 "Hg2 mi
9:00 PM75 °FHaze.No wind61%29.92 "Hg2 mi
8:30 PM73 °FHaze.No wind65%29.92 "Hg2 mi
8:00 PM77 °FHaze.No wind54%29.89 "Hg2 mi
7:30 PM77 °FHaze.No wind54%29.89 "Hg2 mi
6:30 PM77 °FHaze.No wind54%29.86 "Hg2 mi
6:00 PM79 °FHaze.No wind54%29.86 "Hg2 mi
5:30 PM82 °FHaze.No wind51%29.83 "Hg2 mi
5:00 PM88 °FHaze.No wind40%29.83 "Hg2 mi
4:30 PM90 °FHaze.No wind38%29.83 "Hg2 mi
3:00 PM91 °FHaze.No wind30%29.83 "Hg2 mi
2:30 PM91 °FHaze.No wind24%29.83 "Hg2 mi
1:30 PM91 °FHaze.No wind32%29.86 "Hg2 mi
1:00 PM91 °FHaze.No wind32%29.86 "Hg2 mi
12:30 PM90 °FHaze.No wind33%29.89 "Hg2 mi
11:30 AM90 °FHaze.No wind38%29.92 "Hg2 mi
11:00 AM88 °FHaze.No wind43%29.92 "Hg2 mi
10:30 AM86 °FHaze.No wind46%29.95 "Hg2 mi
10:00 AM84 °FHaze.No wind48%29.95 "Hg2 mi
9:30 AM82 °FHaze.No wind51%29.95 "Hg2 mi
9:00 AM81 °FHaze.No wind54%29.95 "Hg2 mi
8:30 AM77 °FHaze.No wind61%29.95 "Hg2 mi
8:00 AM73 °FHaze.No wind69%29.95 "Hg2 mi
7:30 AM72 °FHaze.No wind73%29.92 "Hg1 mi
7:00 AM68 °FHaze.No wind83%29.92 "Hg1 mi
6:30 AM66 °FHaze.No wind78%29.92 "Hg1 mi
6:00 AM66 °FHaze.No wind78%29.89 "Hg1 mi
5:30 AM66 °FHaze.No wind83%29.89 "Hg1 mi
5:08 AM66 °FHaze.No wind83%29.86 "Hg1 mi
4:30 AM68 °FHaze.No wind78%29.86 "Hg1 mi
4:00 AM70 °FHaze.No wind73%29.86 "Hg1 mi
3:30 AM68 °FHaze.No wind78%29.86 "Hg1 mi
2:00 AM68 °FHaze.No wind78%29.83 "Hg1 mi
12:30 AM72 °FHaze.No wind69%29.86 "Hg1 mi
12:00 AM73 °FHaze.No wind65%29.86 "Hg1 mi
Weather by CustomWeather, © 2016

See weather overviewHow to use our weather pages